Regional Weather Roundup
Issued by NWS

Home | Current Version | Previous Version | Text Only | Print | Product List | Glossary Off
Versions: 1 2 3 4 5 6 7 8 9 10 11 12 13 14 15 16 17 18 19 20 21 22 23 24 25 26 27

000
ASUS45 KBOU 230907
RWRCO

WEATHER ROUNDUP FOR COLORADO
NATIONAL WEATHER SERVICE DENVER/BOULDER CO
300 AM MDT THU OCT 23 2014

NOTE: "FAIR" INDICATES FEW OR NO CLOUDS BELOW 12000 FEET WITH NO
SIGNIFICANT WEATHER AND/OR OBSTRUCTIONS TO VISIBILITY.

COZ001>005-013-030-031-231000-
...NORTHWEST COLORADO...

CITY           SKY/WX    TMP DP  RH WIND       PRES   REMARKS
CRAIG          CLEAR     32  28  85 CALM      30.27R
HAYDEN         CLEAR     37  30  75 E10       30.27R
MEEKER         CLEAR     36  32  85 E5        30.27R
MOUNT WERNER   NOT AVBL
STEAMBOAT SPGS CLEAR     32  30  94 CALM      30.28R
WALDEN         CLEAR     30  27  86 SE7       30.29R WCI  23
$$

COZ006>008-011-231000-
...WEST CENTRAL VALLEYS...

CITY           SKY/WX    TMP DP  RH WIND       PRES   REMARKS
GRAND JUNCTION CLEAR     44  37  76 SE5       30.20R
MONTROSE       CLEAR     43  35  73 SE9       30.26S
EAGLE          CLEAR     36  36 100 CALM      30.33R
RIFLE          CLEAR     38  34  85 SE5       30.26R
DELTA          CLEAR     45  34  65 NE6       30.24R
NUCLA          NOT AVBL
$$

COZ017>023-064>068-231000-
...SOUTHWEST COLORADO...

CITY           SKY/WX    TMP DP  RH WIND       PRES   REMARKS
DURANGO        PTCLDY    37  33  85 N6        30.27F
CORTEZ         CLEAR     37  33  85 E6        30.26R
PAGOSA SPRINGS PTCLDY    36  35  99 CALM      30.32S
TELLURIDE      CLEAR     38  33  80 SE6       30.40S
WOLF CREEK PAS CLEAR     32  32 100 SW7         N/A  WCI  26
$$

COZ009-010-012-014-032>034-037-058>063-231000-
...CENTRAL COLORADO...

CITY           SKY/WX    TMP DP  RH WIND       PRES   REMARKS
ASPEN          CLEAR     33  29  85 SW7       30.32S WCI  27
BUENA VISTA    CLEAR     32  28  86 CALM      30.31S
COPPER MTN     PTCLDY    34  27  75 W14G20    30.46S WCI  24
BERTHOUD PASS  FAIR      27  23  86 NW37      30.40F WCI   9
COTTONWOOD PAS CLEAR     43  23  45 NW8G20    30.36S
GUNNISON       CLEAR     32  28  86 CALM      30.36S
KREMMLING      CLEAR     30  28  93 CALM        N/A
LEADVILLE      PTCLDY    32  24  72 N8        30.37S WCI  25
MONARCH PASS   FOG       30  30 100 W29G43    30.54R VSB<1/4 WCI  15
SALIDA         CLEAR     40  32  75 CALM      30.37R
SUNLIGHT       CLEAR     36  30  80 CALM      30.44R
WILKERSON PASS NOT AVBL
$$

COZ069>075-231000-
...SAN LUIS VALLEY/SANGRE DE CRISTO MOUNTAINS...

CITY           SKY/WX    TMP DP  RH WIND       PRES   REMARKS
ALAMOSA        PTCLDY    33  28  81 CALM      30.29S
LA VETA PASS   CLEAR     34  30  86 S5        30.37S WCI  30
SAGUACHE       CLEAR     37  32  81 N12       30.32R
$$

COZ035-036-038>040-231000-
...NORTHERN COLORADO FRONT RANGE...

CITY           SKY/WX    TMP DP  RH WIND       PRES   REMARKS
DENVER INTL AP PTCLDY    44  37  76 W9        30.16R
DMNS CITY PARK   N/A     44  39  84 SE3       30.15F
AURORA         PTCLDY    45  39  81 W6        30.18R
FRONT RANGE AP CLEAR     46  41  81 SW8       30.17R
ERIE MUNI ARPT CLEAR     39  36  90 CALM      30.15S
BOULDER MUN AP CLEAR     45  36  70 S3        30.15S
CENTENNIAL     PTCLDY    43  36  76 SE3       30.17R
BROOMFIELD     CLEAR     46  36  66 SW3       30.17S
FORT COLLINS   CLEAR     41  34  75 N7        30.16S
LONGMONT       CLEAR     41  36  81 CALM      30.17S
$$

COZ041-046-047-076>085-087-088-231000-
...PIKES PEAK/PALMER DIVIDE AND SOUTHERN FOOTHILLS...

CITY           SKY/WX    TMP DP  RH WIND       PRES   REMARKS
COLO. SPRINGS  CLEAR     43  39  86 N8        30.20S
A. F. ACADEMY  CLEAR     38  36  91 N9        30.22R
ELLICOTT       NOT AVBL
FALCON         CLEAR     42  40  93 N3        30.23S
FORT CARSON    CLEAR     43  38  84 N12       30.18R
LIMON          CLEAR     42  40  92 N5        30.16R
MONUMENT HILL  CLEAR     41  36  81 SW9       30.21S
TRINIDAD       CLEAR     47  37  68 SW12      30.17S
$$

COZ042>045-048>051-090-091-231000-
...NORTHEAST COLORADO...

CITY           SKY/WX    TMP DP  RH WIND       PRES   REMARKS
GREELEY ARPT   CLEAR     37  28  70 N9        30.15S
AKRON          CLEAR     46  34  62 S9        30.12S
BURLINGTON     CLEAR     42  38  85 W7        30.12S
WRAY           CLEAR     42  33  70 CALM      30.11S
STERLING       CLEAR     37  34  87 SW3       30.11S
HOLYOKE        CLEAR     43  34  70 W6        30.11R
FORT MORGAN    CLEAR     45  33  64 CALM      30.13S
$$

COZ086-089-092>099-231000-
...SOUTHEAST COLORADO...

CITY           SKY/WX    TMP DP  RH WIND       PRES   REMARKS
PUEBLO         CLEAR     47  42  83 W5        30.14R
LA JUNTA       CLEAR     48  45  89 NW7       30.11S
LAMAR          PTCLDY    44  41  89 SW5       30.08R
SPRINGFIELD      N/A     50  47  89 NW3       30.10F
$$



USA.gov is the U.S. government's official web portal to all federal, state and local government web resources and services.